[[{"header":{"parameterUnit":"m.s-1","parameterCategory":1,"la1":30.2991,"la2":30.254,"lo1":-89.0895,"lo2":-89.0444,"dy":0.0017,"dx":0.0017,"nx":28,"ny":28,"refTime":"2024-02-29T09:00:00:Z","depth":0,"parameterNumber":2,"parameterNumberName":"U-component_of_WINDS"},"data":[0,0,0,0,0,0,0,0,0,0,0,0,0,0,0,0,0,0,0,0,0,0,0,0,0,0,0,0,0,0,0,0,0,0,0,0,0,0,0,0,0,0,0,0,0,0,0,0,0,0,0,0,0,0,0,0,0,0,-5.9822,-5.9825,0,-6.0093,-6.0096,-6.0099,-6.0208,-6.0207,-6.0206,-6.0206,-6.0481,-6.0489,-6.0497,0,0,0,0,0,0,0,0,0,0,0,0,0,-5.9397,-5.9404,-5.9822,-5.9825,-5.9828,-6.0092,-6.0096,-6.01,-6.0208,-6.0207,-6.0206,-6.0205,-6.0479,-6.0488,-6.0498,0,0,0,0,0,0,0,0,0,0,0,0,0,-5.9615,-5.9406,-5.9821,-5.9914,-5.9925,-6.0092,-6.0096,-6.0101,-6.0208,-6.0207,-6.0206,-6.0205,-6.0476,-6.0487,-6.0499,-6.0592,0,0,-6.0535,-6.054,0,0,0,0,0,0,0,0,-5.9603,-5.9631,-5.9897,-5.9908,-5.9921,-6.0115,-6.0047,-6.0265,-6.0208,-6.01,-6.0206,-6.0205,-6.036,-6.0382,-6.0434,-6.0605,-6.0617,-6.0536,-6.0544,-6.0549,-6.0552,0,0,0,0,0,0,0,-5.9588,-5.962,-5.9929,-5.9901,-5.9915,-5.9942,-5.9972,-6.0089,-6.0232,-6.011,-6.0118,-6.0149,-6.0366,-6.0423,-6.0442,-6.0621,-6.0536,-6.0547,-6.0554,-6.0559,-6.0882,-6.0884,0,0,0,0,0,0,-5.9557,-5.9607,-5.992,-5.9937,-5.9756,-5.995,-5.9984,-6.0054,-6.0232,-6.0258,-6.015,-6.0153,-6.0403,-6.0428,-6.0452,-6.0573,-6.0549,-6.056,-6.0567,-6.0881,-6.0882,-6.0884,0,0,0,0,0,0,-5.9548,-5.9584,-5.9909,-5.9774,-5.9818,-5.9959,-6.0036,-6.006,-6.0116,-6.0262,-6.0288,-6.0181,-6.0403,-6.0435,-6.0557,-6.0584,-6.0565,-6.0576,-6.0879,-6.0881,-6.0883,-6.0815,0,0,0,0,0,0,-5.9535,-5.958,-5.9617,-5.9774,-5.9825,-6.001,-6.0038,-6.0066,-6.0137,-6.0144,-6.0298,-6.0322,-6.0405,-6.0538,-6.0568,-6.06,-6.0585,-6.0877,-6.088,-6.0883,-6.0815,-6.0815,-6.0814,0,0,0,0,0,-5.9519,-5.9587,-5.9618,-5.9656,-5.9874,-6.0011,-6.004,-6.0134,-6.0138,-6.0177,-6.027,-6.0317,-6.0576,-6.055,-6.0585,-6.062,-6.0876,-6.0879,-6.0882,-6.0816,-6.0815,-6.0814,0,0,0,0,0,0,-5.9428,-5.9609,-5.9646,-5.9766,-5.9873,-6.0029,-6.008,-6.013,-6.0236,-6.0238,-6.035,-6.0384,-6.0496,-6.0571,-6.0538,-6.072,-6.073,-6.074,-6.0667,-6.0667,-6.0666,-6.0646,-6.0595,0,0,0,0,0,-5.9422,-5.9519,-5.9671,-5.9763,-5.9814,-5.9938,-6.0001,-6.0064,-6.0179,-6.0224,-6.0327,-6.0435,-6.0541,-6.0609,-6.0714,-6.0827,-6.0862,-6.0869,-6.0868,-6.0867,-6.0874,-6.094,-6.0944,-6.0895,-6.0895,-6.0895,0,0,-5.941,-5.9521,-5.9575,-5.9747,-5.9837,-5.9934,-5.9975,-6.0076,-6.0149,-6.0239,-6.036,-6.0439,-6.0568,-6.0686,-6.0743,-6.0752,-6.0896,-6.0871,-6.0869,-6.0877,-6.0944,-6.0948,-6.0952,-6.0897,-6.0897,-6.0896,0,0,-5.9438,-5.9532,-5.9618,-5.9708,-5.9844,-5.9926,-5.9946,-6.0096,-6.0152,-6.0276,-6.0346,-6.0434,-6.0614,-6.0703,-6.0772,-6.0835,-6.0882,-6.0866,-6.0862,-6.0924,-6.0928,-6.0932,-6.0954,-6.0961,-6.0873,-6.0873,-6.0873,0,-5.9406,-5.9556,-5.9656,-5.9754,-5.9828,-5.9915,-6.0003,-6.0085,-6.0247,-6.0296,-6.0304,-6.0532,-6.0625,-6.0765,-6.078,-6.0833,-6.086,-6.0849,-6.092,-6.0925,-6.093,-6.0952,-6.096,-6.087,-6.0871,-6.0871,-6.0871,0,-5.951,-5.9613,-5.9666,-5.9822,-5.9902,-5.9994,-6.0108,-6.0177,-6.0233,-6.0314,-6.0439,-6.0554,-6.0684,-6.0722,-6.0778,-6.0871,-6.0872,-6.0898,-6.091,-6.093,-6.0953,-6.0962,-6.0866,-6.0867,-6.0868,-6.0869,0,0,-5.9487,-5.9698,-5.9715,-5.9787,-5.9944,-6.0026,-6.0122,-6.025,-6.0307,-6.0417,-6.05,-6.0651,-6.0677,-6.0755,-6.0822,-6.0877,-6.0919,-6.0897,-6.0902,-6.0897,-6.1028,-6.1006,-6.1015,-6.0952,-6.0954,-6.0956,-6.1017,0,-5.9535,-5.9712,-5.9805,-5.9942,-6.0039,-6.0123,-6.0207,-6.0312,-6.0391,-6.0484,-6.0571,-6.0676,-6.0702,-6.0749,-6.0808,-6.0901,-6.0947,-6.0899,-6.103,-6.1034,-6.0994,-6.1027,-6.1005,-6.1057,-6.1027,-6.1028,-6.1029,0,-5.9616,-5.9725,-5.9871,-6.0017,-6.0061,-6.0135,-6.0261,-6.0349,-6.0469,-6.0523,-6.061,-6.0677,-6.0781,-6.0786,-6.0932,-6.0897,-6.0956,-6.1011,-6.1015,-6.103,-6.1032,-6.1042,-6.1076,-6.1083,-6.1044,-6.1043,-6.1042,0,-5.9583,-5.9767,-5.9879,-5.9938,-6.0111,-6.0161,-6.0235,-6.0356,-6.0427,-6.0537,-6.0584,-6.0704,-6.077,-6.0861,-6.0958,-6.0952,-6.1094,-6.1107,-6.1141,-6.1139,-6.1167,-6.1163,-6.1209,-6.1206,-6.1206,-6.1205,-6.1205,0,-5.9628,-5.9714,-5.9867,-5.9935,-6.0034,-6.0141,-6.0236,-6.0317,-6.0423,-6.0509,-6.059,-6.0668,-6.0792,-6.0886,-6.0963,-6.1072,-6.1101,-6.1147,-6.1166,-6.1139,-6.1133,-6.1179,-6.1178,-6.1208,-6.1207,-6.1207,-6.1206,0,-5.9608,-5.9714,-5.9841,-5.9995,-6.0036,-6.0102,-6.0234,-6.0304,-6.0387,-6.0494,-6.0525,-6.0655,-6.077,-6.0877,-6.103,-6.1081,-6.1191,-6.1216,-6.115,-6.1161,-6.1189,-6.1184,-6.1265,-6.1281,-6.1267,-6.1267,-6.1267,0,-5.9629,-5.9697,-5.9859,-5.9922,-5.9995,-6.0096,-6.017,-6.0278,-6.0351,-6.0494,-6.0546,-6.0667,-6.077,-6.095,-6.1058,-6.1175,-6.1203,-6.1224,-6.1221,-6.1192,-6.1203,-6.1198,-6.1205,-6.1221,-6.1221,-6.1221,-6.122,0,-5.9654,-5.9704,-5.9807,-5.9928,-6.0014,-6.0115,-6.0218,-6.0265,-6.0393,-6.0471,-6.059,-6.0669,-6.0826,-6.0945,-6.1075,-6.1152,-6.1207,-6.1221,-6.1235,-6.1208,-6.1166,-6.1189,-6.1145,-6.1218,-6.1218,-6.1218,-6.1219,-6.1219,-5.9656,-5.9721,-5.9845,-5.9957,-6.0046,-6.0141,-6.0214,-6.0307,-6.0408,-6.0544,-6.0601,-6.0722,-6.0842,-6.1022,-6.1099,-6.1194,-6.1206,-6.1226,-6.1232,-6.1235,-6.1229,-6.1152,-6.1219,-6.1219,-6.1219,-6.1219,-6.1219,0,-5.9686,-5.977,-5.9872,-6.0014,-6.0102,-6.0148,-6.0265,-6.0335,-6.044,-6.0548,-6.0647,-6.0784,-6.09,-6.1018,-6.114,-6.1194,-6.1223,-6.1223,-6.122,-6.1236,-6.1212,-6.1187,-6.1198,-6.1198,-6.1198,-6.1198,-6.1198,-6.1198,-5.9711,-5.9823,-5.9887,-6.0044,-6.0128,-6.0247,-6.031,-6.0398,-6.0484,-6.0633,-6.073,-6.0806,-6.0918,-6.105,-6.1158,-6.119,-6.1231,-6.1224,-6.1262,-6.1237,-6.1238,-6.1239,-6.1216,-6.1232,-6.1232,-6.1279,-6.1279,-6.128]},{"header":{"parameterUnit":"m.s-1","parameterCategory":1,"la1":30.2991,"la2":30.254,"lo1":-89.0895,"lo2":-89.0444,"dy":0.0017,"dx":0.0017,"nx":28,"ny":28,"refTime":"2024-02-29T09:00:00:Z","depth":0,"parameterNumber":3,"parameterNumberName":"V-component_of_WINDS"},"data":[0,0,0,0,0,0,0,0,0,0,0,0,0,0,0,0,0,0,0,0,0,0,0,0,0,0,0,0,0,0,0,0,0,0,0,0,0,0,0,0,0,0,0,0,0,0,0,0,0,0,0,0,0,0,0,0,0,0,6.0087,6.0087,0,6.014,6.0141,6.0141,6.0115,6.0113,6.0112,6.011,6.016,6.0162,6.0165,0,0,0,0,0,0,0,0,0,0,0,0,0,5.9959,5.9962,6.0087,6.0087,6.0088,6.014,6.0141,6.0141,6.0115,6.0113,6.0111,6.011,6.0159,6.0162,6.0165,0,0,0,0,0,0,0,0,0,0,0,0,0,6.0014,5.9963,6.0087,6.0081,6.0081,6.014,6.0141,6.0142,6.0115,6.0113,6.0111,6.0109,6.0158,6.0162,6.0166,6.0231,0,0,6.0178,6.0179,0,0,0,0,0,0,0,0,6.0011,6.0018,6.0081,6.0082,6.0082,6.0119,6.0114,6.0171,6.0116,6.0102,6.011,6.0108,6.0147,6.0152,6.0166,6.0233,6.0235,6.0178,6.018,6.0182,6.0183,0,0,0,0,0,0,0,6.0007,6.0016,6.0108,6.0082,6.0083,6.0075,6.0081,6.0125,6.0135,6.0103,6.0101,6.0108,6.0147,6.0163,6.0167,6.0236,6.0178,6.0181,6.0184,6.0185,6.0362,6.0364,0,0,0,0,0,0,6.0004,6.0013,6.0106,6.0109,6.0041,6.0079,6.0085,6.0109,6.0135,6.0137,6.011,6.0107,6.0157,6.0163,6.0169,6.0249,6.0182,6.0185,6.0188,6.036,6.0362,6.0365,0,0,0,0,0,0,6.0001,6.0012,6.0104,6.0061,6.0072,6.0084,6.011,6.0111,6.0126,6.014,6.0142,6.0124,6.0156,6.0164,6.0217,6.025,6.0187,6.0191,6.0357,6.036,6.0364,6.0408,0,0,0,0,0,0,5.9998,6.0012,6.0037,6.0062,6.0074,6.0151,6.0112,6.0113,6.0134,6.013,6.0154,6.0156,6.0155,6.0211,6.0221,6.0254,6.0194,6.0354,6.0358,6.0363,6.0404,6.0413,6.042,0,0,0,0,0,5.9993,6.0045,6.0038,6.005,6.0106,6.0153,6.016,6.016,6.0137,6.0162,6.0172,6.0155,6.0245,6.0217,6.0227,6.0263,6.0352,6.0357,6.0362,6.04,6.0411,6.042,0,0,0,0,0,0,6.0021,6.0048,6.0041,6.0103,6.0127,6.0149,6.018,6.0171,6.02,6.0195,6.0191,6.0197,6.0253,6.0263,6.0231,6.0329,6.0295,6.0302,6.032,6.033,6.0339,6.0335,6.0197,0,0,0,0,0,6.0036,6.0073,6.0094,6.0146,6.0159,6.0168,6.0188,6.0186,6.021,6.0219,6.0232,6.0254,6.0288,6.031,6.0341,6.0406,6.0411,6.0435,6.0444,6.045,6.0457,6.0494,6.0505,6.0382,6.0382,6.0382,0,0,6.0063,6.0083,6.0106,6.0153,6.0171,6.0209,6.0176,6.0217,6.0246,6.0224,6.0276,6.0287,6.0312,6.0372,6.0398,6.0382,6.0492,6.0457,6.0463,6.0465,6.05,6.0512,6.0522,6.0386,6.0385,6.0385,0,0,6.0135,6.0153,6.02,6.022,6.0249,6.0255,6.0267,6.0292,6.0299,6.0352,6.0338,6.037,6.0428,6.0447,6.0464,6.0547,6.0533,6.0557,6.06,6.0636,6.0646,6.0655,6.0685,6.0696,6.0563,6.0564,6.0564,0,6.0165,6.0224,6.0225,6.0269,6.029,6.0276,6.0324,6.0342,6.0379,6.0394,6.0375,6.045,6.0465,6.053,6.0551,6.0565,6.0578,6.0554,6.0645,6.0653,6.0661,6.069,6.0702,6.0566,6.0566,6.0566,6.0566,0,6.0261,6.0302,6.0336,6.0376,6.0401,6.0446,6.0454,6.0479,6.0476,6.0484,6.0539,6.0558,6.0594,6.0609,6.0605,6.0675,6.0664,6.0645,6.0611,6.0676,6.0703,6.0714,6.057,6.0569,6.0569,6.0568,0,0,6.0348,6.0391,6.0404,6.0423,6.0456,6.0487,6.0532,6.057,6.0592,6.0619,6.0657,6.0708,6.0692,6.0712,6.071,6.0741,6.0808,6.0719,6.072,6.0735,6.0887,6.0901,6.0914,6.0799,6.0802,6.0803,6.0885,0,6.0423,6.0504,6.0508,6.0582,6.0621,6.061,6.0649,6.0673,6.0683,6.0717,6.0726,6.0763,6.0739,6.0751,6.0782,6.0793,6.0838,6.0787,6.0834,6.0836,6.0828,6.0928,6.0942,6.1019,6.0896,6.0898,6.0899,0,6.0519,6.0553,6.0631,6.0662,6.0678,6.0713,6.075,6.0782,6.081,6.0815,6.0839,6.0834,6.088,6.0845,6.0909,6.0875,6.0895,6.0903,6.0906,6.091,6.0871,6.0935,6.1043,6.1054,6.0915,6.0914,6.0913,0,6.0577,6.0641,6.0697,6.0713,6.075,6.0776,6.0791,6.0817,6.0841,6.0873,6.0888,6.0924,6.0943,6.0971,6.0975,6.095,6.104,6.1005,6.1045,6.1045,6.1064,6.1063,6.1177,6.1077,6.1077,6.1076,6.1076,0,6.0659,6.0707,6.0724,6.0758,6.0813,6.0818,6.0871,6.0885,6.0909,6.0945,6.0937,6.0971,6.0975,6.1011,6.1014,6.1068,6.1076,6.1081,6.1081,6.1082,6.1082,6.1094,6.1089,6.1079,6.1079,6.1078,6.1078,0,6.0732,6.0745,6.0805,6.0836,6.0845,6.0884,6.091,6.0943,6.0954,6.1,6.1011,6.1027,6.1068,6.1076,6.1124,6.1126,6.119,6.1185,6.1182,6.1181,6.1221,6.1218,6.1347,6.1365,6.1253,6.1254,6.1255,0,6.0783,6.0821,6.0858,6.0883,6.0901,6.0942,6.0967,6.0973,6.1,6.1036,6.1065,6.1106,6.1139,6.1206,6.1221,6.1258,6.1254,6.1297,6.1259,6.126,6.1255,6.1253,6.1258,6.1304,6.1305,6.1306,6.1307,0,6.0874,6.088,6.0917,6.0959,6.099,6.1021,6.1052,6.1072,6.1083,6.1113,6.1157,6.1183,6.1235,6.1276,6.1314,6.1329,6.132,6.1319,6.1331,6.1331,6.1328,6.1332,6.1202,6.1316,6.1315,6.1314,6.1314,6.1313,6.0938,6.0972,6.1005,6.1048,6.1072,6.1101,6.1135,6.1151,6.1189,6.1232,6.1234,6.1282,6.1311,6.1361,6.1379,6.1417,6.1403,6.1419,6.1423,6.1427,6.1431,6.1323,6.1423,6.1423,6.1423,6.1423,6.1423,0,6.1029,6.1051,6.109,6.1135,6.1169,6.1161,6.1195,6.1223,6.1267,6.1296,6.133,6.1381,6.1422,6.1442,6.1482,6.1508,6.1505,6.1519,6.1516,6.1521,6.1441,6.1428,6.152,6.152,6.152,6.152,6.152,6.152,6.1081,6.1139,6.1149,6.122,6.124,6.1289,6.131,6.1337,6.136,6.1419,6.1454,6.1468,6.1493,6.1535,6.1573,6.1577,6.1592,6.1608,6.1611,6.1536,6.1526,6.1516,6.1504,6.1611,6.1611,6.1687,6.1688,6.1689]}]]